Location: Newark
(15.4608°S, 41.1635°W)
Time: 00:38:42
(UTC+00:00)

N. Korean satellite - Pass Details

Date: 28 June 2021
Orbit: 451 x 498 km, 97.2° (Epoch: 30 July)

Event Time Altitude Azimuth Distance (km) Brightness Sun altitude
Rises 07:20:13 0° 19° (NNE) 2,570 10.8 -25.9°
Reaches altitude 10° 07:22:18 10° 24° (NNE) 1,691 9.8 -25.4°
Enters shadow 07:25:49 55° 97° (E) 601 7.2 -24.6°
